Regional Weather Roundup
Issued by NWS Grand Forks, ND

Home | Current Version | Previous Version | Graphics & Text | Print | Product List | Glossary On
Versions: 1 2 3 4 5 6 7 8 9 10 11 12 13 14 15 16 17 18 19 20 21 22 23 24 25 26 27 28 29 30 31 32 33 34 35 36 37 38 39 40 41 42 43 44 45 46 47 48 49 50
000
ASUS43 KFGF 271131
RWRFGF
PRAIRIE TO PINES  WEATHER ROUNDUP
NATIONAL WEATHER SERVICE EASTERN NORTH DAKOTA/GRAND FORKS ND
600 AM CDT WED MAY 27 2015

 **SATELLITE DATA USED TO AUGMENT SKY COVER AT AUTOMATED STATIONS**
 *****  WEATHER ACROSS EASTERN NORTH DAKOTA  *****

CITY           SKY/WX    TMP DP  RH WIND       PRES   REMARKS
GRAND FORKS    PTCLDY    57  50  77 N14       29.86R
GRAND FRKS AFB PTCLDY    57  49  76 N9        29.88R
GRAND FRKS NWS   N/A     55 N/A N/A N10         N/A
DEVILS LAKE    CLEAR     52  45  76 NW7       29.92R
FARGO          CLEAR     56  48  74 SW3       29.86R
WAHPETON ARPT  SUNNY     52  46  82 W6        29.88R
$$

 ***** WEATHER ACROSS CENTRAL AND WESTERN NORTH DAKOTA  *****

CITY           SKY/WX    TMP DP  RH WIND       PRES   REMARKS
BISMARCK       CLEAR     53  49  86 W3        29.95R
MINOT          CLEAR     58  45  62 SW10      29.89R
JAMESTOWN      CLEAR     57  48  72 W9        29.90R
MINOT AFB      CLEAR     56  53  91 W9        29.88S
GARRISON         N/A     56  47  71 CALM      29.92R
WILLISTON      CLEAR     51  44  77 SW3       29.92R
DICKINSON      CLEAR     49  43  80 CALM      29.94S
HETTINGER      CLEAR     43  40  89 CALM      29.97S
$$

 *****  OTHER AIRPORT OBSERVATIONS IN OUR AREA  *****

CITY           SKY/WX    TMP DP  RH WIND       PRES   REMARKS
WALHALLA         N/A     50  46  87 MISG      29.93R
GRAFTON AIRPOR FAIR      54  43  66 N14       29.91R
VALLEY CITY AR FAIR      54  50  87 NW9       29.91R
CANDO          FAIR      50  46  87 N10       29.95R
CAVALIER APRT  FAIR      54  45  71 N13       29.92R
GWINNER        NOT AVBL
SHEYENNE NWR     N/A     54  49  82 NW6       29.95S
ROLLA          FAIR      46  43  87 N9        29.97R
 ***** THE ABOVE OBSERVATIONS ARE NON NWS ARE NOT QUALITY
       CONTROLLED AND MAY MIS-REPORT RAIN FOR SNOW...
$$

  *****  WEATHER ACROSS NORTHERN MINNESOTA  *****

CITY           SKY/WX    TMP DP  RH WIND       PRES   REMARKS
FLAG ISLAND    CLEAR     54  46  76 NW10      29.82R
WARROAD        CLEAR     52  46  82 NW3       29.85R
ROSEAU         CLEAR     54  46  76 N3        29.85R
HALLOCK        PTCLDY    54  43  66 N15       29.89R
THF RVR FALLS  PTCLDY    57  46  67 N8        29.86R
BAUDETTE       CLEAR     55  49  80 NW9       29.80R
WASKISH        CLEAR     57  52  82 CALM      29.82R
CROOKSTON      CLEAR     55  48  76 N8        29.86R
STEPHEN NDAWN    N/A     55  48  76 N12         N/A
GREENBUSH NDAW   N/A     54  46  76 NW9         N/A
$$
  *****  WEATHER ACROSS CENTRAL AND WEST MINNESOTA  *****

CITY           SKY/WX    TMP DP  RH WIND       PRES   REMARKS
FOSSTON        PTCLDY    50  48  93 CALM      29.86R
BEMIDJI        PTCLDY    50  48  93 W5        29.84R
PARK RAPIDS    CLEAR     51  48  89 CALM      29.83R
ELBOW LAKE     FAIR      53  50  89 W6        29.87R
WADENA         CLEAR     54  52  94 W6        29.85R
DETROIT LAKES  CLEAR     55  50  82 NW6       29.87R
MOORHEAD       CLEAR     52  48  87 W6        29.88R
FERGUS FALLS   CLEAR     54  52  94 W6        29.87R
MORRIS MN      CLEAR     54  48  82 W6        29.87R
STAPLES        CLEAR     48  48 100 CALM      29.85R
$$
  *****  WEATHER ELSEWHERE ACROSS MINNESOTA  *****

CITY           SKY/WX    TMP DP  RH WIND       PRES   REMARKS
DULUTH         CLOUDY    55  48  77 W9        29.80R
INTRNTL FALLS  CLEAR     46  45  96 CALM      29.78R
ELY            NOT AVBL
CLOQUET        CLOUDY    55  50  82 W7        29.82R
WHEATON        CLEAR     57  48  72 W6        29.90R
BRAINERD       CLEAR     49  49 100 S3        29.84R FOG
HIBBING        MOCLDY    47  44  90 CALM      29.80R
ALEXANDRIA     CLEAR     52  50  93 SW6       29.87R
SAINT CLOUD    MOCLDY    52  51  97 S3        29.86R
MINNEAPOLIS    CLOUDY    56  55  97 SW5       29.88R FOG
$$

  *****  WEATHER ACROSS SOUTH DAKOTA  *****

CITY           SKY/WX    TMP DP  RH WIND       PRES   REMARKS
SIOUX FALLS    PTCLDY    52  48  86 CALM      29.96R
BROOKINGS      CLEAR     54  48  82 SW7       29.97R
WATERTOWN      CLEAR     58  49  72 W9        29.92R
HURON          CLEAR     50  48  93 CALM      29.95R
SISSETON         N/A     59  49  69 NW6       29.88R
ABERDEEN       CLEAR     53  49  86 W6        29.93R
MITCHELL       CLEAR     56  50  80 SW8       29.97R
PIERRE         CLEAR     49  46  90 SW3       29.96R
MOBRIDGE       CLEAR     50  49  96 CALM      29.94R
RAPID CITY     MOCLDY    49  47  93 SE5       29.98R
$$

  *****  SOME WEATHER IN NEARBY STATES *****

CITY           SKY/WX    TMP DP  RH WIND       PRES   REMARKS
GLASGOW MT       N/A     61  32  33 MISG      29.92R
GREAT FALLS MT MOCLDY    48  46  93 W10       30.01S
CHEYENNE WY    CLOUDY    50  46  86 CALM      30.08F
SCOTTSBLUFF NE MOCLDY    54  50  86 CALM      30.03R
OMAHA NE       PTCLDY    54  52  93 CALM      30.00S
DES MOINES IA  MOCLDY    57  54  89 SW5       29.97R
DAVENPORT IA   MOCLDY    62  58  86 W12       29.95R
CHICAGO IL     PTCLDY    64  60  87 W9        29.90R
EAU CLAIRE WI  CLOUDY    56  54  93 W6        29.86R
LA CROSSE WI   CLOUDY    60  56  86 W3        29.87R
$$

  *****  SOME NATIONAL WEATHER *****

CITY           SKY/WX    TMP DP  RH WIND       PRES   REMARKS
LA GUARDIA NY  PTSUNNY   69  61  75 S5        30.17R
RALEIGH NC     MOCLDY    71  68  90 S3        30.22R
ATLANTA GA     CLOUDY    67  64  90 CALM      30.24R
NEW ORLEANS LA MOCLDY    76  73  91 E6        30.09R
OKLAHOMA CITY  FOG       63  62  97 S5        30.04S VSB 1/4
ALBUQUERQUE NM PTCLDY    59  46  62 N5        30.13R
SALT LAKE CITY PTCLDY    52  47  83 SE5       30.04F
LOS ANGELES CA CLOUDY    58  54  86 W3        29.99F
BOISE ID       PTCLDY    59  43  55 NE9       29.96R
SEATTLE WA     PTCLDY    54  51  90 S3        30.06R
$$

*** WEATHER ACROSS MANITOBA...SASKATCHEWAN AND ONTARIO ***
                ***ONTARIO***

CITY           SKY/WX    TMP DP  RH WIND       PRES   REMARKS
GERALDTON      MOCLDY    50  50 100 CALM      29.68R
THUNDER BAY    MOCLDY    52  52 100 SW3       29.71R
SIOUX LOOKOUT  MOCLDY    54  46  76 N7        29.77R
TORONTO        PTSUNNY   70  64  83 SW12G18   29.95R
BIG TROUT LK   CLOUDY    30  28  93 N7        29.96R WCI  23
PICKLE LAKE    MOCLDY    39  36  87 N12G20    29.83
DRYDEN         CLEAR     54  48  82 N9        29.79R
KENORA         MOCLDY    54  48  82 NW8       29.82R
$$
                *** MANITOBA***

CITY           SKY/WX    TMP DP  RH WIND       PRES   REMARKS
BRANDON        MOCLDY    45  41  87 NE9       29.98R
DAUPHIN        CLEAR     43  37  81 NE9       30.04R
ISLAND LAKE    CLEAR     34  30  86 N7        30.04R
PILOT MOUND      N/A     46  41  81 N12         N/A
THE PAS        PTCLDY    34  32  93 SE3       30.09R
THOMPSON       CLEAR     23  21  93 CALM      30.08R
WINNIPEG       PTCLDY    46  41  81 N10       29.93R
LYNN LAKE      PTCLDY    30  28  93 NW3       30.08R
CHURCHILL      MOCLDY    30  27  86 N20G25    30.04R WCI  18
GILLAM         PTCLDY    27  25  93 SW7       30.06R WCI  19
$$
                ***SASKATCHEWAN***

CITY           SKY/WX    TMP DP  RH WIND       PRES   REMARKS
ESTEVAN        PTCLDY    48  46  93 CALM      29.92R
KINDERSLEY     PTCLDY    50  45  81 E16       29.97S
LLOYDMINSTER   CLEAR     43  36  75 E8        30.01R
PRINCE ALBERT  PTCLDY    34  32  93 NE3       30.06S
REGINA         MOCLDY    52  45  76 E12       29.96
YORKTON        CLOUDY    43  41  93 NE9       30.01R
N. BATTLEFORD  CLEAR     45  39  81 E10       30.04S
LA RONGE       PTCLDY    30  27  86 CALM      30.08
SASKATOON      PTCLDY    45  41  87 NE9       30.04S
SWIFT CURRENT  PTCLDY    52  46  82 E12       29.94R
$$
NOTE: THESE ARE AUTOMATED STATIONS WITH LIMITED QUALITY CONTROL
      "FAIR" INDICATES FEW OR NO CLOUDS BELOW 12,000 FEET WITH NO
      SIGNIFICANT WEATHER AND/OR OBSTRUCTIONS TO VISIBILITY.
      SKY/WX - SKY CONDITION AND SIGNIFICANT WEATHER.
      TMP - AIR TEMPERATURE.    DP   - DEWPOINT TEMPERATURE.
      RH  - RELATIVE HUMIDITY.  PRES - PRESSURE.
      HX  - HEAT INDEX.         WCI  - WIND CHILL INDEX.
$



USA.gov is the U.S. government's official web portal to all federal, state and local government web resources and services.